Wallops Island, VA

1:07 PM EST on January 19, 2018 (GMT -0500)
Wallops Flight Facility

Weather History for KWAL - March, 2013

Change the Weather History Date:

Thursday, March 7, 2013

  Actual Average Record
Temperature  
Mean Temperature 44 °F 43 °F  
Max Temperature 50 °F 51 °F 76 °F (1974)
Min Temperature 37 °F 34 °F 15 °F (2015)
Degree Days  
Heating Degree Days 21    
Month to date heating degree days 173  
Since 1 July heating degree days 2870  
Cooling Degree Days 0    
Month to date cooling degree days 0  
Year to date cooling degree days 0  
Moisture  
Dew Point 27 °F    
Average Humidity 59    
Maximum Humidity 76    
Minimum Humidity 42    
Precipitation  
Precipitation 0.01 in 0.13 in 0.57 in (2008)
Month to date precipitation 2.48 0.86  
Year to date precipitation 10.72 6.66  
Sea Level Pressure  
Sea Level Pressure 29.97 in    
Wind  
Wind Speed 15 mph (North)    
Max Wind Speed 25 mph    
Max Gust Speed 35 mph    
Visibility 10 miles    
Events Rain    
T = Trace of Precipitation, MM = Missing Value Source: NWS Daily Summary

Daily Weather History Graph

Daily Weather History Graph

Search for Another Location

Airport or City:

Trip Planner

Search our weather history database for the weather conditions in past years. The results will help you decide how hot, cold, wet, or windy it might be!

Date:

Astronomy

Mar. 07, 2013 Rise Set
Actual Time 6:24 AM EST 6:01 PM EST
Civil Twilight 5:58 AM EST 6:27 PM EST
Nautical Twilight 5:27 AM EST 6:58 PM EST
Astronomical Twilight 4:57 AM EST 7:28 PM EST
Moon 3:18 AM EST (3/7) 1:50 PM EST (3/7)
Length of Visible Light 12h 29m
Length of Day
11h 37m
Waning Crescent, 20% of the Moon is Illuminated
Mar 7
Waning Crescent
Mar 11
New
Mar 19
First Quarter
Mar 27
Full
Apr 3
Last Quarter

Hourly Weather History & Observations

Time (EST) Temp. Windchill Dew Point Humidity Pressure Visibility Wind Dir Wind Speed Gust Speed Precip Events Conditions
12:01 AM 37.0 °F 27.4 °F 30.9 °F 79% 29.80 in 10.0 mi North 17.3 mph 32.2 mph 0.00 in   Overcast
12:22 AM 37.0 °F 28.9 °F 30.9 °F 79% 29.81 in 10.0 mi North 12.7 mph 25.3 mph 0.00 in   Overcast
12:29 AM 37.0 °F 25.9 °F 30.9 °F 79% 29.82 in 10.0 mi North 23.0 mph 33.4 mph 0.01 in   Overcast
12:54 AM 37.9 °F 28.9 °F 30.9 °F 76% 29.82 in 10.0 mi North 16.1 mph 28.8 mph 0.01 in Rain Light Rain
1:54 AM 37.9 °F 27.3 °F 30.9 °F 76% 29.84 in 10.0 mi North 21.9 mph 31.1 mph 0.00 in   Overcast
2:29 AM 37.9 °F 29.2 °F 30.9 °F 76% 29.85 in 9.0 mi North 15.0 mph 28.8 mph 0.00 in Rain Light Rain
2:54 AM 37.9 °F 28.2 °F 28.9 °F 70% 29.86 in 10.0 mi North 18.4 mph 31.1 mph 0.00 in Rain Light Rain
3:54 AM 39.0 °F 29.0 °F 28.0 °F 65% 29.88 in 10.0 mi North 20.7 mph 28.8 mph 0.00 in   Overcast
4:54 AM 39.0 °F 29.6 °F 27.0 °F 62% 29.91 in 10.0 mi North 18.4 mph 27.6 mph N/A   Overcast
5:54 AM 39.0 °F 29.9 °F 26.1 °F 60% 29.94 in 10.0 mi North 17.3 mph 27.6 mph N/A   Overcast
6:54 AM 39.0 °F 30.6 °F 25.0 °F 57% 29.96 in 10.0 mi North 15.0 mph 23.0 mph N/A   Overcast
7:54 AM 39.9 °F 31.4 °F 25.0 °F 55% 29.97 in 10.0 mi North 16.1 mph 25.3 mph N/A   Clear
8:54 AM 43.0 °F 34.5 °F 26.1 °F 51% 29.99 in 10.0 mi North 19.6 mph 33.4 mph N/A   Clear
9:54 AM 44.1 °F 36.8 °F 26.1 °F 49% 30.01 in 10.0 mi NNW 16.1 mph 27.6 mph N/A   Partly Cloudy
10:54 AM 46.0 °F 39.0 °F 28.0 °F 50% 30.02 in 10.0 mi North 17.3 mph 27.6 mph N/A   Scattered Clouds
11:54 AM 46.9 °F - 27.0 °F 46% 30.02 in 10.0 mi North 19.6 mph 29.9 mph N/A   Partly Cloudy
12:54 PM 46.9 °F - 28.0 °F 48% 30.01 in 10.0 mi NNW 24.2 mph 32.2 mph N/A   Clear
1:54 PM 48.0 °F - 28.0 °F 46% 30.00 in 10.0 mi NNW 18.4 mph 28.8 mph N/A   Scattered Clouds
2:54 PM 48.0 °F - 27.0 °F 44% 30.00 in 10.0 mi North 18.4 mph 27.6 mph N/A   Mostly Cloudy
3:54 PM 48.0 °F - 27.0 °F 44% 30.01 in 10.0 mi North 13.8 mph 23.0 mph N/A   Overcast
4:54 PM 46.9 °F - 26.1 °F 44% 30.03 in 10.0 mi North 16.1 mph - N/A   Overcast
5:54 PM 46.0 °F 39.6 °F 26.1 °F 46% 30.04 in 10.0 mi North 15.0 mph 23.0 mph N/A   Overcast
6:54 PM 45.0 °F 41.2 °F 27.0 °F 49% 30.07 in 10.0 mi North 6.9 mph - N/A   Overcast
7:54 PM 45.0 °F 42.6 °F 27.0 °F 49% 30.08 in 10.0 mi North 4.6 mph - N/A   Overcast
8:54 PM 44.1 °F 42.5 °F 28.0 °F 53% 30.07 in 10.0 mi NNW 3.5 mph - N/A   Overcast
9:54 PM 44.1 °F 40.1 °F 27.0 °F 51% 30.07 in 10.0 mi NNW 6.9 mph - N/A   Overcast
10:54 PM 43.0 °F 36.8 °F 24.1 °F 47% 30.07 in 10.0 mi NNW 11.5 mph - N/A   Overcast
11:54 PM 39.9 °F 33.4 °F 23.0 °F 51% 30.07 in 10.0 mi NNW 10.4 mph - N/A   Clear